Regional Weather Roundup
Issued by NWS Little Rock, AR

Home | Current Version | Previous Version | Graphics & Text | Print | Product List | Glossary On
Versions: 1 2 3 4 5 6 7 8 9 10 11 12 13 14 15 16 17 18 19 20 21 22 23 24 25 26 27 28 29 30 31 32 33 34 35 36 37 38 39 40 41 42 43 44 45 46 47 48 49 50
000
ASUS44 KLZK 202005
RWRLZK

WEATHER ROUNDUP FOR ARKANSAS
NATIONAL WEATHER SERVICE LITTLE ROCK AR
300 PM CDT SAT SEP 20 2014

NOTE: "FAIR" INDICATES FEW OR NO CLOUDS BELOW 12,000 FEET WITH NO
SIGNIFICANT WEATHER AND/OR OBSTRUCTIONS TO VISIBILITY.

ARZ001-003-010-029-202100-
NORTHWEST ARKANSAS

CITY           SKY/WX    TMP DP  RH WIND       PRES   REMARKS
FAYETTEVILLE   PTSUNNY   82  68  62 S10       30.04F HX  85
FORT SMITH     MOSUNNY   87  65  47 VRB5      30.00F HX  89
HARRISON       MOSUNNY   82  69  64 W6        30.04F HX  85
BENTONVILLE    MOSUNNY   84  68  58 SW9       30.05F HX  87
ROGERS         MOSUNNY   84  68  58 SW8       30.05F HX  87
SILOAM SPGS    MOSUNNY   84  68  58 W10       30.05F HX  87
HIGHFILL       MOSUNNY   81  67  62 SW9       30.04F
SPRINGDALE     MOSUNNY   84  68  58 SW9       30.05F HX  87
$$

ARZ004-005-016-202100-
NORTH CENTRAL ARKANSAS

CITY           SKY/WX    TMP DP  RH WIND       PRES   REMARKS
BATESVILLE     MOSUNNY   90  66  45 NW6       29.99F HX  92
FLIPPIN        MOSUNNY   88  64  45 SW7       30.01S HX  89
MTN HOME       PTSUNNY   86  67  52 VRB3      30.00F HX  89
$$

ARZ040-041-202100-
WEST CENTRAL ARKANSAS

CITY           SKY/WX    TMP DP  RH WIND       PRES   REMARKS
MENA           PTSUNNY   88  68  51 CALM      30.04F HX  91
MOUNT IDA      SUNNY     87  66  49 CALM      30.01F HX  89
$$

ARZ009-017-025-026-028-202100-
NORTHEAST ARKANSAS

CITY           SKY/WX    TMP DP  RH WIND       PRES   REMARKS
CORNING        LGT RAIN  86  68  54 W9        30.00F HX  89
JONESBORO      SUNNY     89  65  44 W6        29.99F HX  91
NEWPORT        MOSUNNY   93  65  39 S7        29.99F HX  95
WALNUT RIDGE   MOSUNNY   88  66  48 CALM      29.98F HX  90
BLYTHEVILLE    MOSUNNY   89  68  49 CALM      30.00F HX  93
$$

ARZ022-023-033-042-044-202100-
CENTRAL ARKANSAS

CITY           SKY/WX    TMP DP  RH WIND       PRES   REMARKS
LITTLE ROCK    PTSUNNY   91  64  40 E7        29.99F HX  92
N LITTLE ROCK  PTSUNNY   85  68  55 SW3       29.99F HX  88
JACKSONVILLE   MOSUNNY   91  67  44 S7        30.00F HX  95
SEARCY         MOSUNNY   91  66  43 S8        30.00F HX  93
HOT SPRINGS    MOSUNNY   89  65  44 CALM      30.01F HX  91
RUSSELLVILLE   MOSUNNY   87  67  51 VRB3      30.00F HX  90
CLINTON        FAIR      90  70  51 SW5       30.00F HX  95
$$

ARZ036-202100-
EAST ARKANSAS

CITY           SKY/WX    TMP DP  RH WIND       PRES   REMARKS
WEST MEMPHIS   MOSUNNY   88  67  49 S9        29.99F HX  91
$$

ARZ050-053-066-070-073-202100-
SOUTHWEST ARKANSAS

CITY           SKY/WX    TMP DP  RH WIND       PRES   REMARKS
ARKADELPHIA    FAIR      92  70  48 SW6       30.00F HX  97
CAMDEN         SUNNY     93  63  36 NE5       29.99F HX  94
TEXARKANA      SUNNY     88  68  51 CALM      30.00F HX  91
EL DORADO      MOSUNNY   90  65  43 CALM      29.99F HX  92
DE QUEEN       MOSUNNY   87  68  52 CALM      29.99F HX  90
$$

ARZ056-057-069-202100-
SOUTHEAST ARKANSAS

CITY           SKY/WX    TMP DP  RH WIND       PRES   REMARKS
PINE BLUFF     MOSUNNY   90  62  39 W5        29.99F HX  90
STUTTGART      SUNNY     90  66  45 N7        30.01F HX  92
MONTICELLO     SUNNY     90  61  37 CALM      29.99F HX  90

$$




USA.gov is the U.S. government's official web portal to all federal, state and local government web resources and services.